Theta_e
330 328 325 320 304 300 296 298 301 301 300 303 306 304 301 304 304 299 313 316 322 322 329 329 333 335 336 337 339 339 340 341 342 344 343 342 343 343 343 342 342 342 344 346 346 347 347 346 347
323 323 320 314 300 296 296 300 298 301 303 304 304 304 301 301 309 307 307 314 320 321 324 325 331 330 332 334 334 335 336 337 338 338 339 337 335 335 336 337 336 337 338 340 341 342 340 340 342
322 321 313 307 301 295 294 298 300 302 303 302 300 302 302 303 308 308 309 314 318 318 321 323 328 327 328 329 328 329 331 331 332 334 331 330 331 331 331 331 330 330 332 334 336 336 335 334 336
317 313 309 297 296 298 297 299 302 301 300 302 301 297 302 305 307 309 309 313 314 316 318 322 325 324 324 324 324 324 324 325 327 325 324 322 323 323 322 322 322 322 323 325 330 330 329 329 330
314 311 301 298 298 297 300 302 302 301 301 301 300 298 300 304 308 306 305 310 312 312 314 315 321 321 321 321 321 320 319 319 320 319 318 317 317 317 317 317 318 318 318 319 321 320 320 320 322
307 306 297 295 298 300 300 301 301 301 302 300 299 298 300 305 304 303 303 303 308 310 312 312 316 318 317 317 317 317 316 316 315 314 314 314 314 314 314 315 316 316 316 316 317 316 316 317 317
305 304 299 299 298 299 301 303 299 300 301 300 301 297 298 301 304 304 301 300 302 304 307 307 307 310 313 312 312 314 313 313 311 310 310 310 309 309 310 310 313 313 313 314 315 315 315 315 314
305 302 297 298 297 298 301 301 300 300 300 303 304 297 298 301 304 302 301 299 299 300 301 302 303 305 304 303 309 310 310 309 307 307 305 304 308 307 307 305 308 310 310 311 312 312 312 312 312
311 297 296 299 298 298 301 298 301 299 297 299 303 299 299 304 302 299 297 298 298 299 299 300 300 300 302 302 304 306 306 305 305 305 305 307 301 300 301 305 306 307 308 309 309 310 310 309 309
303 300 300 301 300 298 300 300 300 297 297 298 299 301 301 302 298 297 296 296 296 296 297 298 299 299 300 300 299 299 300 300 300 300 300 300 299 298 301 304 306 305 305 306 306 307 306 304 300
304 299 302 301 302 302 300 300 301 298 297 300 299 301 299 299 297 297 297 297 297 296 297 297 298 298 297 296 299 298 299 298 298 298 298 299 299 297 297 296 296 297 301 297 298 298 298 297 298
299 304 304 305 303 301 298 301 299 299 300 302 300 301 299 299 297 298 298 299 298 298 297 296 297 297 297 298 298 298 297 297 297 296 296 296 295 294 294 294 294 294 294 293 293 294 295 295 297
301 302 304 304 302 300 302 299 299 299 302 304 304 302 300 299 299 299 300 300 299 298 297 295 295 296 298 296 296 297 295 296 296 296 294 294 294 292 293 292 292 292 292 291 291 292 293 293 295
302 302 301 302 302 302 299 298 299 300 303 303 303 300 299 300 300 299 299 300 300 299 297 296 295 296 297 296 295 296 295 295 295 294 293 293 292 290 291 291 291 291 291 290 291 291 291 292 293
301 296 299 300 301 299 299 295 296 301 301 300 301 301 301 300 301 301 301 300 301 300 297 295 295 296 295 295 295 295 294 295 293 293 293 291 291 290 289 289 289 290 290 289 289 290 290 290 292
295 296 291 298 300 298 297 290 299 302 300 300 298 298 300 301 301 301 301 301 300 298 296 295 297 295 294 294 294 294 292 292 292 292 291 291 291 290 288 288 288 289 289 288 288 288 288 288 289
295 290 292 296 300 297 295 292 298 298 297 297 297 298 299 300 301 301 300 299 299 297 295 294 293 293 293 293 293 292 292 291 291 290 290 290 290 290 288 287 287 288 287 287 288 287 287 286 287
289 290 293 292 296 296 293 293 297 298 298 297 299 300 300 300 300 301 300 299 299 296 294 294 293 292 293 292 290 290 290 290 289 288 289 289 289 289 287 287 287 287 286 286 287 286 286 286 287
295 293 292 296 298 294 293 294 296 298 298 298 299 300 300 299 300 301 301 298 297 295 293 293 292 291 292 290 288 287 288 288 287 289 289 289 288 288 286 285 285 285 285 285 286 286 285 285 286
293 291 291 295 297 293 292 293 296 297 298 299 299 299 300 297 298 297 297 297 296 294 293 292 292 292 292 291 289 288 288 288 287 288 288 288 288 287 286 285 284 284 283 284 284 285 284 284 285
292 290 290 291 293 292 289 288 291 295 298 298 299 300 298 297 297 295 295 295 294 293 292 292 292 292 292 290 289 287 286 286 285 285 286 287 287 286 286 284 284 283 283 283 283 283 283 281 283
289 294 293 292 288 284 290 284 289 291 293 295 296 298 296 296 297 296 294 294 293 293 292 292 292 291 291 290 288 286 284 282 284 285 286 286 286 285 285 285 284 283 283 282 283 284 282 281 280
291 292 290 290 287 286 286 283 287 292 290 292 295 298 298 297 296 295 294 295 294 292 292 292 291 291 290 289 288 286 283 284 285 284 284 283 284 284 283 284 283 282 282 282 282 282 281 281 280
292 289 288 286 285 280 285 285 284 288 291 292 294 296 296 296 294 294 294 293 293 292 291 291 290 290 290 288 287 286 285 284 283 282 282 282 282 282 282 283 281 281 281 280 281 281 281 280 280
289 286 280 278 277 281 287 284 289 291 293 294 294 295 294 296 293 293 292 291 291 290 290 290 290 289 289 287 286 286 285 284 283 283 282 281 280 280 280 280 280 279 279 280 280 279 279 279 279
287 288 281 274 278 282 282 280 287 294 296 295 296 295 295 294 294 293 292 291 291 290 290 290 289 288 288 287 286 286 285 286 284 283 282 280 279 279 280 279 278 278 279 278 278 278 278 278 279
287 284 289 282 276 277 284 287 291 293 293 293 292 292 292 293 293 294 293 291 290 290 290 289 289 289 288 287 286 285 285 283 283 281 280 279 278 279 278 278 277 277 277 277 277 277 277 277 278
286 288 282 282 272 271 282 283 286 291 293 291 291 291 292 293 293 293 293 292 291 291 290 289 289 288 287 286 285 285 284 282 280 279 278 278 277 277 276 276 276 276 276 276 275 276 276 276 276
283 283 285 285 284 275 277 283 288 290 291 292 291 292 293 294 293 292 292 292 291 290 289 288 288 287 286 285 284 283 281 280 279 278 277 277 277 276 276 275 275 275 275 275 274 274 274 274 274
288 287 288 282 280 280 283 284 293 292 291 292 292 294 294 295 295 294 293 291 290 290 288 288 287 287 286 284 283 281 280 279 278 277 276 276 275 275 275 274 274 274 273 273 273 272 273 272 272
Wind_Speed
5 8 5 2 1 3 6 5 4 5 0 4 7 4 2 3 2 2 4 5 9 6 10 9 11 11 12 10 13 12 11 12 11 13 14 13 14 14 13 14 14 12 13 13 12 13 14 14 12
6 5 2 4 2 4 2 8 4 5 6 6 7 5 2 3 6 8 7 6 9 6 9 8 10 12 12 12 12 11 10 8 9 10 11 12 9 9 10 12 12 12 12 12 12 13 14 14 14
7 4 2 3 5 6 3 4 7 8 6 4 2 3 5 3 7 10 7 9 9 6 9 7 10 11 12 13 12 11 12 11 10 12 11 10 11 12 12 12 11 12 13 13 11 12 13 12 12
3 2 4 2 10 4 4 4 10 8 2 3 1 3 4 3 3 10 10 8 9 7 8 7 10 11 11 12 11 11 11 11 11 11 11 11 11 12 12 12 11 12 13 13 12 13 13 13 13
2 4 4 6 10 2 5 4 7 8 8 8 4 3 3 5 10 10 10 8 9 8 8 6 9 10 11 10 10 10 11 11 10 11 11 11 12 11 12 13 13 13 13 13 13 13 14 14 13
3 3 4 6 6 4 4 5 4 7 8 6 6 5 4 9 10 9 8 8 8 8 8 7 7 9 10 10 10 10 10 10 10 10 11 11 12 12 12 14 13 14 14 14 14 14 13 14 14
3 2 7 10 8 4 4 7 5 7 8 8 3 3 4 9 9 9 9 8 8 9 7 8 8 8 10 9 9 9 10 10 10 10 9 10 10 11 12 13 13 14 15 15 15 15 16 16 14
2 2 6 6 4 5 4 5 3 5 5 5 6 6 4 10 11 9 8 8 8 8 8 7 8 7 7 6 9 10 10 10 10 9 6 2 6 10 12 12 12 13 15 13 15 15 16 16 15
2 2 6 8 1 1 5 4 6 2 2 3 7 2 3 14 11 8 7 7 7 7 8 8 8 7 8 8 7 10 12 10 8 7 3 3 5 6 6 7 10 11 13 13 15 15 15 17 16
3 3 5 3 6 4 2 7 5 3 6 6 5 7 7 11 10 10 10 11 9 9 7 7 8 7 7 7 7 7 6 4 5 5 5 3 5 2 4 6 11 12 14 15 16 16 16 12 5
6 5 4 3 3 5 5 6 6 6 8 10 13 12 14 11 12 13 13 12 14 9 7 8 8 7 7 5 5 3 3 3 4 6 3 3 4 3 3 3 3 4 9 5 8 7 5 7 6
4 10 11 3 2 1 4 3 6 10 14 1 2 2 15 18 17 18 16 15 11 13 11 10 9 8 8 5 5 5 4 4 3 4 3 3 3 3 3 3 4 4 4 6 5 4 6 7 8
8 9 9 6 5 5 8 11 8 13 11 13 11 5 12 14 17 15 15 12 10 14 13 12 9 8 7 7 4 5 5 4 5 5 3 3 4 3 3 3 3 3 4 4 5 5 5 6 6
6 8 11 8 9 7 7 7 5 10 14 15 11 11 12 15 17 13 14 16 15 13 13 13 10 9 8 6 7 5 5 6 5 5 5 4 4 3 3 3 3 4 4 4 4 4 4 5 5
4 8 10 12 10 7 4 11 16 21 6 9 10 11 12 15 12 19 19 17 16 12 12 14 11 10 9 8 7 6 5 6 5 5 6 5 4 4 3 3 3 3 3 3 4 4 4 5 5
4 5 5 5 10 7 10 14 10 16 12 16 11 10 10 13 18 13 11 12 11 10 14 12 12 10 9 7 6 5 5 5 5 5 5 6 5 5 3 2 2 3 3 3 4 4 4 5 5
9 7 9 10 11 8 10 9 10 0 1 8 10 12 13 12 16 13 13 11 11 10 12 13 10 10 9 8 6 6 7 5 5 5 5 6 5 4 3 2 2 3 2 3 3 3 4 5 6
7 7 11 14 7 7 8 18 13 11 8 13 16 16 15 15 15 14 14 12 14 12 11 12 9 9 9 6 5 5 5 4 5 5 5 7 5 5 3 2 3 3 2 3 3 4 3 4 6
15 16 17 23 11 10 16 19 16 11 14 14 17 19 16 13 9 14 16 11 12 13 14 14 13 11 10 7 6 4 6 4 4 4 7 7 5 5 4 3 3 3 2 2 3 3 6 4 4
9 14 22 20 12 8 10 14 12 10 16 21 18 20 20 7 7 9 12 11 14 16 14 15 15 14 11 9 6 4 6 4 4 4 6 6 7 6 5 5 3 1 0 3 3 4 3 3 2
13 12 16 17 9 6 5 8 13 9 17 16 17 22 12 10 10 9 11 12 13 16 18 17 17 16 14 11 7 3 4 4 3 5 5 5 7 6 5 5 4 2 0 2 2 3 4 3 3
22 9 10 12 7 7 4 16 9 6 12 11 15 18 11 11 8 10 11 12 16 14 14 16 16 16 14 12 11 11 8 7 5 5 5 6 8 7 7 6 4 3 2 3 3 3 2 2 4
7 2 2 4 6 6 5 12 6 10 10 12 12 16 12 10 12 11 14 16 14 12 14 14 14 15 15 14 14 11 7 5 5 5 9 6 6 7 7 6 5 3 2 3 3 4 5 3 3
3 2 3 3 2 11 12 13 4 7 9 6 10 14 12 8 9 9 9 10 12 11 12 14 15 15 14 14 13 15 14 9 9 7 7 5 5 5 7 7 6 5 4 3 3 3 5 5 5
3 3 5 5 1 18 10 12 15 5 8 11 13 14 10 10 11 10 12 13 13 15 15 13 16 16 14 14 15 14 14 13 14 12 8 8 5 4 6 7 6 4 4 2 2 3 5 4 4
10 9 8 8 12 23 5 12 9 11 12 10 15 12 9 9 9 10 11 13 14 15 16 16 18 17 16 16 16 13 12 10 9 10 9 7 6 6 7 7 6 4 3 2 3 3 4 5 4
7 7 4 2 3 4 11 14 10 9 11 10 9 7 8 8 9 11 10 11 11 14 19 20 19 18 17 17 14 14 12 10 10 10 7 6 6 6 7 7 6 4 3 3 3 3 4 4 4
3 1 3 2 3 9 20 16 17 14 19 6 5 7 7 9 9 9 9 10 11 13 14 16 16 18 15 15 14 12 12 8 8 9 9 8 7 7 7 6 5 4 3 3 3 3 4 5 4
3 4 5 1 6 6 11 17 5 10 6 9 8 5 7 9 10 10 10 10 12 11 14 15 16 16 16 15 13 12 11 10 9 10 9 9 7 8 7 6 5 4 3 3 4 4 4 7 8
5 11 13 12 16 5 11 28 8 6 8 9 7 7 8 10 10 10 12 11 12 13 13 16 15 16 16 14 13 12 10 11 12 10 9 8 7 7 7 6 5 4 4 4 5 5 6 7 8
Wind_Direction
283 231 254 300 294 209 258 151 40 100 270 50 307 68 357 38 346 205 134 110 98 108 115 80 81 81 76 76 74 66 66 60 62 67 68 63 52 49 48 47 39 33 29 28 27 30 27 18 14
305 281 263 276 245 258 315 97 147 155 70 74 22 38 352 62 95 117 130 168 107 116 85 84 88 91 93 94 86 79 83 93 78 78 74 65 57 57 48 44 38 32 27 23 18 22 21 15 6
281 280 275 201 232 262 37 119 147 88 92 125 164 51 339 78 98 138 104 136 127 111 103 94 100 99 95 93 90 90 90 85 85 80 74 74 69 63 59 52 44 34 28 26 22 19 18 17 9
303 207 268 260 268 319 34 92 110 112 102 329 216 193 81 40 114 121 133 153 119 113 103 93 102 100 100 99 99 96 94 91 89 83 78 70 66 59 56 49 39 33 30 22 24 18 13 7 8
239 263 257 229 250 114 100 341 122 160 160 170 183 195 163 165 98 122 142 146 135 118 116 98 116 118 113 108 105 100 94 89 87 85 78 71 61 54 49 41 35 32 28 22 21 11 4 359 357
276 226 281 262 325 119 109 156 183 188 180 99 169 284 143 131 139 150 152 152 143 124 116 123 109 114 110 108 110 107 103 96 89 81 76 69 65 56 47 40 35 32 26 23 18 12 5 356 349
256 289 259 283 306 312 159 128 211 216 212 175 140 249 117 159 163 152 163 147 139 132 148 152 140 115 107 105 110 111 105 97 89 83 78 74 65 59 49 38 30 28 20 15 12 7 1 355 350
320 286 275 271 278 326 97 145 68 271 244 6 128 219 197 174 154 145 165 151 148 151 161 157 134 150 132 119 122 123 118 110 101 94 89 94 74 52 57 33 24 27 18 16 11 6 359 354 346
235 271 264 274 41 328 113 216 157 121 244 209 182 3 102 134 130 151 167 170 172 168 173 159 162 165 141 138 143 134 133 133 130 118 72 57 67 36 68 43 31 31 19 20 11 7 359 6 355
227 236 263 37 338 292 167 199 221 185 223 238 198 122 124 143 154 177 184 193 191 182 187 167 168 168 159 155 163 164 162 136 105 84 72 47 84 70 50 42 36 17 26 17 12 7 7 358 342
226 231 300 298 315 343 277 276 208 239 251 225 212 200 168 166 180 194 200 200 196 181 177 178 171 170 164 147 151 154 139 131 110 90 86 82 85 45 40 40 20 12 22 15 9 0 356 351 345
271 242 249 291 119 255 237 258 264 222 230 260 24 355 166 180 191 199 203 203 186 185 179 175 174 165 171 150 158 158 135 136 127 110 82 99 87 62 47 48 28 26 20 15 5 357 349 340 337
234 261 282 260 192 232 282 260 247 256 248 237 241 173 175 192 203 206 206 201 192 188 178 170 167 164 161 153 180 154 136 142 133 124 91 78 98 76 63 56 43 29 31 19 355 345 341 332 318
4 309 291 277 228 216 225 262 229 241 233 243 244 204 202 199 205 204 204 205 198 184 176 164 167 163 155 174 164 155 151 142 140 130 124 93 107 98 73 62 38 39 35 1 338 327 320 312 313
284 303 276 248 220 233 171 278 231 245 255 238 241 234 211 213 206 209 208 205 198 188 163 165 162 163 159 176 160 152 151 150 142 130 130 133 100 93 76 73 55 57 25 349 333 326 336 321 318
232 238 281 268 200 159 134 261 231 247 219 235 225 245 237 222 215 214 207 198 195 172 168 159 167 166 159 164 156 147 144 143 140 139 149 141 126 110 103 105 76 46 20 355 348 331 330 316 311
225 249 235 272 179 132 178 256 265 353 5 267 232 233 238 238 219 204 187 178 179 171 164 163 157 161 159 155 155 144 151 146 149 147 148 150 137 134 136 122 82 54 19 354 337 341 333 317 315
251 246 283 277 199 197 205 251 263 280 255 257 265 259 249 244 232 199 182 173 168 162 156 156 156 155 157 146 142 130 137 158 149 160 156 145 146 152 140 105 75 66 29 353 353 329 303 295 299
255 264 261 271 263 186 230 246 250 246 272 262 262 267 260 255 248 192 177 165 156 153 157 160 159 167 164 159 154 153 171 172 163 167 151 152 157 164 150 120 81 49 35 315 308 287 297 303 308
272 275 271 276 292 179 257 259 262 250 257 258 263 267 270 240 244 155 159 159 163 161 160 164 170 175 175 168 166 156 157 181 160 155 157 169 161 170 147 127 123 131 5 315 307 298 318 291 344
239 244 262 265 281 217 272 259 250 241 249 262 262 258 253 222 220 170 160 169 161 166 171 174 175 177 178 166 158 118 99 96 125 165 166 170 161 154 156 149 153 165 10 280 288 316 309 300 316
268 240 260 270 268 241 93 288 221 236 266 239 250 264 248 222 188 165 164 167 172 177 173 177 178 180 179 169 166 168 169 164 190 167 159 163 162 171 167 155 151 168 196 268 267 264 267 268 264
261 64 304 290 270 317 217 275 230 188 243 236 241 254 266 238 177 165 174 172 175 172 178 181 181 185 181 181 174 169 176 172 155 143 145 155 166 172 165 160 157 172 202 234 277 295 273 252 255
122 316 246 249 227 254 201 219 173 185 210 215 227 248 243 171 161 170 164 154 172 171 176 183 187 191 184 179 178 180 178 170 152 150 157 167 177 175 171 165 160 177 194 232 235 270 280 276 269
170 148 297 306 263 263 181 241 251 217 183 196 217 236 220 161 165 170 165 170 174 182 182 182 189 195 184 180 187 189 182 176 173 169 164 167 168 174 180 158 165 164 170 217 260 268 266 270 261
179 176 172 225 258 279 154 253 252 220 228 217 212 231 152 163 162 181 179 182 187 181 183 185 193 194 187 186 190 190 188 184 178 172 168 171 168 163 155 147 149 155 174 210 238 246 248 257 254
181 197 211 272 66 320 261 277 282 233 248 241 216 156 168 174 183 182 180 183 182 187 190 192 194 197 194 193 188 191 189 181 174 163 155 160 152 155 150 147 148 160 188 214 233 236 253 268 283
187 305 116 240 231 242 279 287 270 271 262 230 154 219 218 201 187 195 192 185 194 196 193 195 198 201 195 189 191 188 184 173 160 155 160 158 155 153 145 144 150 168 190 208 243 246 257 266 274
164 237 229 269 187 205 267 273 257 145 154 165 207 208 218 198 205 204 197 197 187 187 190 193 195 192 195 186 184 181 177 168 158 164 161 161 153 149 146 151 166 185 206 227 241 250 271 269 267
237 215 203 217 239 236 234 262 185 261 133 139 163 193 221 209 200 199 202 189 190 193 187 193 194 196 194 181 178 180 165 165 163 163 158 151 144 138 140 148 164 190 215 227 239 256 267 268 270